STARLINK-11254 [DTC]

Last updated on Sat Sep 28 2024 00:02:03 GMT+0000 (Coordinated Universal Time)

1 60731U 24152M 24271.51696273 .00004151 00000+0 39099-4 0 9990 2 60731 53.1611 199.6413 0001171 88.7145 271.4007 15.69712979 5891
UTC large
Height (km)
Speed (km/s)
/
Latitude / Longitude
Inclination (degrees)
Orbital Period (minutes)
Azimuth
Elevation
Range (km)
Doppler Factor

Next 0 passes for location: London (51.5072 / 0.1276)

Sorry there are no passes over London.